Regional Weather Roundup
Issued by NWS

Home | Current Version | Previous Version | Graphics & Text | Print | Product List | Glossary On
Versions: 1 2 3 4 5 6 7 8 9 10 11 12 13 14 15 16 17 18 19 20 21 22 23 24 25 26 27 28 29 30 31 32 33 34 35 36 37 38 39 40 41 42 43 44 45 46 47 48 49 50
000
ASUS44 KMEG 122300
RWRTN
TENNESSEE HOURLY STATE WEATHER ROUNDUP
NATIONAL WEATHER SERVICE MEMPHIS TN
500 PM CST TUE DEC 12 2017

TNZ002-004-019-021-049-052-054-088>092-130000-
WEST TENNESSEE

CITY           SKY/WX    TMP DP  RH WIND       PRES   REMARKS
MEMPHIS INTL   PTCLDY    42  22  44 NW13      30.15F
NWS MEMPHIS      N/A     43 N/A N/A MISG        N/A
JACKSON        CLEAR     37  16  42 N8        30.15R WCI  31
DYERSBURG      CLEAR     40  16  37 NW3       30.16S
$$

TNZ008-025-027-028-033-062-065-066-130000-
NORTH MIDDLE TENNESSEE

CITY           SKY/WX    TMP DP  RH WIND       PRES   REMARKS
NASHVILLE      PTCLDY    36  11  35 N9        30.09R WCI  29
CLARKSVILLE    CLEAR     34   7  32 NW12      30.10S WCI  25
SMYRNA         PTCLDY    35  13  40 NW13      30.09R WCI  26
CROSSVILLE     CLEAR     30  13  49 NW8G17    29.97R WCI  22
$$

TNZ061-075-076-078-094-096-097-130000-
SOUTH MIDDLE TENNESSEE

CITY           SKY/WX    TMP DP  RH WIND       PRES   REMARKS
WINCHESTER     CLEAR     37  16  41 NW7       30.04R WCI  32
$$

TNZ017-018-042-046-047-130000-
NORTHEAST TENNESSEE

CITY           SKY/WX    TMP DP  RH WIND       PRES   REMARKS
TRI CITIES     MOCLDY    32  16  51 W12G24    29.86R WCI  23
$$

TNZ012-013-036-069-073-074-130000-
CENTRAL EAST TENNESSEE

CITY           SKY/WX    TMP DP  RH WIND       PRES   REMARKS
KNOXVILLE      PTCLDY    35  20  54 W12G24    29.96R WCI  27
OAK RIDGE      PTCLDY    36  15  42 W8        29.98R WCI  30
$$

TNZ083-085-099-130000-
SOUTHEAST TENNESSEE

CITY           SKY/WX    TMP DP  RH WIND       PRES   REMARKS
CHATTANOOGA    PTCLDY    39  21  48 NW10      30.01R WCI  32
$$

SKY/WX REPORTED AS FAIR MEANS FEW OR NO CLOUDS BELOW
12 THOUSAND FEET.





USA.gov is the U.S. government's official web portal to all federal, state and local government web resources and services.